ARIANE 44L DEB, 24741

Orbit data source: Space-Track

ARIANE 44L DEB, 24741 is space debris in HEO originally from a launch on Tue, 15 Jan 1991 UTC launched from the French Guiana (FRGUI). Debris objects in space refer to the collection of defunct objects orbiting the Earth. Examples of debris include non-operational satellites, rocket bodies, and fragments generated from explosions, collisions, or faulty payload assembly.

Loading next visibility...
Identifier
24741, 1991-003H
Orbit
HEO
Country
Flag of FRFR
Related business
Manufacturer
Unknown
Mission
Spacecraft
Bus & Motor
Unknown
Mass
Unknown
Launch date (UTC)
1991-01-15 (35 years ago)
Launch vehicle
Unknown
Launch site
French Guiana (FRGUI)
Object type
Payload
Rocket body
Debris
Shape & HBR
Unknown shape, 0.3 m
Radar Cross Section
Medium (>0.1 m² and <1 m²)

Expand to show TLE details & history
Last TLE update: 2 days ago

TLE from 2 days ago
0 ARIANE 44L DEB
1 24741U 91003H   26171.41942014  .00000014  00000-0  12872-2 0  9990
2 24741   6.4598 177.6593 6806738 218.1551 350.7632  2.65577016199825
Epoch: 2026-06-20T10:03Z
TLE epoch observation values (Epoch: 2026-06-20T10:03:57.900Z)
Latitude
2.15506°
Longitude
-81.50274°
Altitude
2,306.788 km
Speed
8.584 km/s
True Right ascension
22h 32m 29s
True Declination
2° 08' 40"
Sunlit
Object was in daylight at epoch
Visualization orbit readout
Latitude
Unknown
Longitude
Unknown
Altitude
Unknown
Speed
Unknown
Apparent Right ascension
Unknown
Apparent Declination
Unknown
Sunlit
N/A
Visualization observer readout
Local Sidereal Time
23:07:49
Azimuth
Unknown
Elevation
Unknown
Doppler factor
Unknown
Orbital elements
Apogee altitude
30,649.295 km
Perigee altitude
657.035 km
Semi-major axis
22,031.302 km
Eccentricity
0.68067
Inclination
6.4598°
RAAN
177.6593°
Arg. of periapsis
218.1551°
True anomaly
302.58328°
Mean anomaly
350.7632°
Eccentric anomaly
333.14675°
Mean motion
0.66372 °/min
Orbital period
542.4 mins
BSTAR
0.0012872
Loading maneuver chart data...
Computing Atmospheric mass density...
Loading historical data...
Loading historical data...
Loading historical data...
Loading historical data...
Loading historical data...
Loading historical data...
Loading historical data...

Documentation

Showing up to 5 results
|